This is the latest recevied weather packets stored in our database for station/object K1BES. If no packets are shown the sender has not sent any weather packets the latest 10 day(s).
| Time | Temp. | Humidity | Pressure | Rain* | Wind** | Luminosity | Snow |
|---|---|---|---|---|---|---|---|
| 1787487865 | 29.44° C | 75% | 1018.8 hPa | 0 mm | - | 73 W/m² | - |
| 1787487562 | 29.44° C | 75% | 1018.8 hPa | 0 mm | - | 56 W/m² | - |
| 1787487258 | 29.44° C | 74% | 1018.6 hPa | 0 mm | - | 51 W/m² | - |
| 1787486954 | 29.44° C | 76% | 1018.4 hPa | 0 mm | - | 61 W/m² | - |
| 1787486649 | 28.89° C | 75% | 1018.7 hPa | 0 mm | - | 62 W/m² | - |
| 1787486348 | 28.89° C | 76% | 1018.4 hPa | 0 mm | - | 63 W/m² | - |
| 1787486043 | 28.89° C | 77% | 1018.4 hPa | 0 mm | - | 57 W/m² | - |
| 1787485738 | 28.89° C | 77% | 1018.5 hPa | 0 mm | - | 53 W/m² | - |
| 1787485434 | 28.89° C | 77% | 1018.3 hPa | 0 mm | - | 36 W/m² | - |
| 1787485129 | 28.33° C | 77% | 1018.3 hPa | 0 mm | - | 29 W/m² | - |
| 1787484825 | 28.33° C | 77% | 1018.1 hPa | 0 mm | - | 22 W/m² | - |
| 1787484521 | 28.33° C | 78% | 1018 hPa | 0 mm | - | 22 W/m² | - |
| 1787484217 | 28.33° C | 77% | 1018 hPa | 0 mm | - | 17 W/m² | - |
| 1787483913 | 28.33° C | 77% | 1018.2 hPa | 0 mm | - | 12 W/m² | - |
| 1787483609 | 28.33° C | 77% | 1018 hPa | 0 mm | - | 8 W/m² | - |
| 1787483306 | 28.33° C | 77% | 1018.2 hPa | 0 mm | - | 4 W/m² | - |
| 1787483001 | 28.33° C | 77% | 1018 hPa | 0 mm | - | 2 W/m² | - |
| 1787482697 | 28.33° C | 77% | 1018 hPa | 0 mm | - | 1 W/m² | - |
| 1787482393 | 27.78° C | 78% | 1018 hPa | 0 mm | - | 0 W/m² | - |
| 1787482089 | 27.78° C | 77% | 1017.4 hPa | 0 mm | - | 0 W/m² | - |
| 1787481788 | 27.78° C | 77% | 1017.5 hPa | 0 mm | - | 0 W/m² | - |
| 1787481483 | 27.78° C | 78% | 1017.5 hPa | 0 mm | - | 0 W/m² | - |
| 1787481181 | 27.78° C | 78% | 1017.5 hPa | 0 mm | - | 0 W/m² | - |
| 1787480877 | 27.78° C | 78% | 1017.5 hPa | 0 mm | - | 0 W/m² | - |
| 1787480574 | 27.78° C | 78% | 1017.5 hPa | 0 mm | - | 0 W/m² | - |
* Rain latest hour (hover to see other rain measurements)
** Current wind speed in m/s (hover to see current wind gust speed)